User: anonymous   Login
Location: Famechon
(49.7599°N, 2.0615°E)
Time: 12:54:43
(UTC+00:00)
Language:

FENGYUN 1C DEB - Orbit

View from above orbital plane
View from above orbital plane
View from above satellite
View from above satellite

Ground track
Ground track

The orbit data is extracted from the following two-line orbital elements,

1 30167U 99025TY  25134.13364257  .00001846  00000-0  45045-3 0  9998
2 30167  98.9792 206.1966 0146447  71.2658 309.4040 14.47672468962947
Epoch (UTC): 14 May 2025 03:12:26
Eccentricity: 0.0146447
inclination: 98.9792°
perigee height: 629 km
apogee height: 837 km
right ascension of ascending node: 206.1966°
argument of perigee: 71.2658°
revolutions per day: 14.47672468
mean anomaly at epoch: 309.4040°
orbit number at epoch: 96294

The dashed part of the orbit path shows where the satellite is in the earth's shadow,  

DLR